Bloomington, IN

11:03 AM EDT on April 22, 2018 (GMT -0400)
Monroe County

Weather History for KBMG - July, 2012

Change the Weather History Date:

Monday, July 23, 2012

  Actual Average Record
Temperature  
Mean Temperature 83 °F 74 °F  
Max Temperature 98 °F 84 °F 98 °F (2012)
Min Temperature 67 °F 64 °F 53 °F (2000)
Degree Days  
Heating Degree Days 0 0  
Month to date heating degree days 0 0  
Since 1 June heating degree days 22 15  
Since 1 July heating degree days 0 0  
Cooling Degree Days 18 9  
Month to date cooling degree days 385 207  
Year to date cooling degree days 834 497  
Since 1 June cooling degree days 633 415  
Growing Degree Days 34 (Base 50)    
Moisture  
Dew Point 67 °F    
Average Humidity 63    
Maximum Humidity 90    
Minimum Humidity 35    
Precipitation  
Precipitation 0.00 in 0.16 in 1.66 in (2014)
Month to date precipitation 1.15 4.06  
Year to date precipitation 13.10 28.84  
Sea Level Pressure  
Sea Level Pressure 30.04 in    
Wind  
Wind Speed 8 mph (WSW)    
Max Wind Speed 17 mph    
Max Gust Speed 24 mph    
Visibility 10 miles    
Events      
T = Trace of Precipitation, MM = Missing Value Source: NWS Daily Summary

Daily Weather History Graph

Daily Weather History Graph

Search for Another Location

Airport or City:

Astronomy

Jul. 23, 2012 Rise Set
Actual Time 6:39 AM EDT 9:06 PM EDT
Civil Twilight 6:08 AM EDT 9:36 PM EDT
Nautical Twilight 5:30 AM EDT 10:14 PM EDT
Astronomical Twilight 4:48 AM EDT 10:56 PM EDT
Moon 11:27 AM EDT (7/23) 11:23 PM EDT (7/23)
Length of Visible Light 15h 27m
Length of Day
14h 26m
Waxing Crescent, 21% of the Moon is Illuminated
Jul 23
Waxing Crescent
Jul 26
First Quarter
Aug 1
Full
Aug 9
Last Quarter
Aug 17
New

Hourly Weather History & Observations

Time (EDT) Temp. Heat Index Dew Point Humidity Pressure Visibility Wind Dir Wind Speed Gust Speed Precip Events Conditions
12:53 AM 70.0 °F - 62.1 °F 76% 30.10 in 10.0 mi Calm Calm - N/A   Clear
1:53 AM 69.1 °F - 61.0 °F 75% 30.09 in 10.0 mi Calm Calm - N/A   Clear
2:53 AM 69.1 °F - 61.0 °F 75% 30.07 in 10.0 mi Calm Calm - N/A   Clear
3:53 AM 73.0 °F - 61.0 °F 66% 30.07 in 10.0 mi SW 4.6 mph - N/A   Clear
4:53 AM 73.0 °F - 64.0 °F 73% 30.06 in 10.0 mi SW 5.8 mph - N/A   Clear
5:53 AM 73.0 °F - 66.0 °F 79% 30.06 in 10.0 mi SSW 3.5 mph - N/A   Clear
7:53 AM 73.9 °F - 69.1 °F 85% 30.09 in 10.0 mi SW 5.8 mph - N/A   Clear
8:53 AM 77.0 °F - 70.0 °F 79% 30.08 in 10.0 mi WSW 6.9 mph - N/A   Clear
9:53 AM 82.9 °F 88.0 °F 72.0 °F 69% 30.07 in 10.0 mi West 9.2 mph - N/A   Clear
10:53 AM 87.1 °F 93.6 °F 72.0 °F 61% 30.07 in 10.0 mi West 11.5 mph 18.4 mph N/A   Clear
11:53 AM 90.0 °F 95.4 °F 70.0 °F 52% 30.06 in 10.0 mi WSW 13.8 mph 23.0 mph N/A   Clear
12:53 PM 93.0 °F 97.9 °F 69.1 °F 45% 30.06 in 10.0 mi WSW 13.8 mph 24.2 mph N/A   Clear
1:53 PM 93.9 °F 97.5 °F 66.9 °F 41% 30.04 in 10.0 mi West 12.7 mph 20.7 mph N/A   Clear
2:53 PM 93.9 °F 97.5 °F 66.9 °F 41% 30.03 in 10.0 mi WNW 10.4 mph 18.4 mph N/A   Partly Cloudy
3:53 PM 98.1 °F 101.8 °F 66.0 °F 35% - 10.0 mi West 9.2 mph 20.7 mph N/A   Clear
4:53 PM 98.1 °F 102.4 °F 66.9 °F 36% 29.99 in 10.0 mi SW 15.0 mph 21.9 mph N/A   Clear
5:53 PM 97.0 °F 100.4 °F 66.0 °F 36% 29.98 in 10.0 mi WSW 11.5 mph 18.4 mph N/A   Clear
6:53 PM 93.9 °F 97.5 °F 66.9 °F 41% 29.99 in 10.0 mi SW 11.5 mph - N/A   Clear
7:53 PM 93.0 °F 96.4 °F 66.9 °F 42% 29.96 in 10.0 mi SW 9.2 mph - N/A   Clear
8:53 PM 90.0 °F 92.8 °F 66.9 °F 46% 29.96 in 10.0 mi SW 6.9 mph - N/A   Clear
9:53 PM 88.0 °F 92.1 °F 69.1 °F 53% - 10.0 mi SW 6.9 mph - N/A   Clear
10:53 PM 86.0 °F 89.4 °F 68.0 °F 55% - 10.0 mi SW 5.8 mph - N/A   Clear
11:53 PM 86.0 °F 89.4 °F 68.0 °F 55% - 10.0 mi WSW 9.2 mph - N/A   Clear